Terminal Aerodrome Forecast
Issued by NWS Pittsburgh, PA

Current Version | Previous Version | Graphics & Text | Print | Product List | Glossary On
Versions: 1 2 3 4 5 6 7 8 9 10 11 12 13 14 15 16 17 18 19 20
000
FTUS41 KPBZ 242100 AAA
TAFPIT
TAF AMD
KPIT 242120Z 2421/2524 17010KT P6SM BKN040 WS015/19040KT
     FM250100 23020G30KT P6SM -SHRA BKN025 OVC030
      TEMPO 2501/2503 20025G40KT 3SM TSRA OVC015CB
     FM250300 25017G29KT P6SM VCSH OVC020
     FM251200 24014G24KT P6SM -SHSN OVC015
     FM251800 27015G28KT P6SM BKN025=

USA.gov is the U.S. government's official web portal to all federal, state and local government web resources and services.